This is the latest recevied weather packets stored in our database for station/object KB4KY. If no packets are shown the sender has not sent any weather packets the latest 1 day(s).
| Time | Temp. | Humidity | Pressure | Rain* | Wind** | Luminosity | Snow |
|---|---|---|---|---|---|---|---|
| 1778022766 | 21.11° C | 63% | 1005.7 hPa | 0 mm | - | - | - |
| 1778022176 | 21.11° C | 63% | 1006.1 hPa | 0 mm | - | - | - |
| 1778021140 | 21.67° C | 56% | 1006 hPa | 0 mm | - | - | - |
| 1778020964 | 21.67° C | 59% | 1006.1 hPa | 0 mm | - | - | - |
| 1778020069 | 21.67° C | 55% | 1006 hPa | 0 mm | - | - | - |
| 1778019768 | 21.67° C | 56% | 1006 hPa | 0 mm | - | - | - |
| 1778018562 | 21.67° C | 57% | 1005.9 hPa | 0 mm | - | - | - |
| 1778018265 | 21.67° C | 59% | 1006.1 hPa | 0 mm | - | - | - |
| 1778017661 | 21.67° C | 60% | 1006.3 hPa | 0 mm | - | - | - |
| 1778016760 | 21.11° C | 60% | 1006.3 hPa | 0 mm | - | - | - |
| 1778016160 | 21.11° C | 60% | 1006.3 hPa | 0 mm | - | - | - |
| 1778015559 | 20.56° C | 63% | 1006.3 hPa | 0 mm | - | - | - |
| 1778014061 | 20° C | 66% | 1007 hPa | 0 mm | - | - | - |
| 1778013329 | 20° C | 70% | 1007.3 hPa | 0 mm | - | - | - |
| 1778012856 | 20° C | 68% | 1007.4 hPa | 0 mm | - | - | - |
| 1778011655 | 20° C | 71% | 1007.5 hPa | 0 mm | - | - | - |
| 1778010455 | 20° C | 69% | 1007.7 hPa | 0 mm | - | - | - |
| 1778009554 | 20.56° C | 70% | 1008.1 hPa | 0 mm | - | - | - |
| 1778008953 | 21.11° C | 70% | 1008.2 hPa | 0 mm | - | - | - |
| 1778008511 | 21.11° C | 64% | 1008.3 hPa | 0 mm | - | - | - |
* Rain latest hour (hover to see other rain measurements)
** Current wind speed in m/s (hover to see current wind gust speed)